This demonstration page uses our WeatherBlox Daily Observations layout. Learn more.

Left ArrowRight Arrow

44.31136, -96.79839

Hourly Observations for May 21, 2022

Temp ( °F °C ) Dew Point ( °F °C ) Humidity (%) Winds ( mph kmh ) Pressure ( in mb ) Visibility ( mi km ) Precip ( " mm )
12:39 am 00:39 Cloudy with Light Rain 41 5 39 4 93 93 NNW 7 11 30.01 1016 10 16 0.00 0.00
12:56 am 00:56 Cloudy 41 5 40 4.4 96 96 NNW 5 7 30.04 1017 10 16 0.00 0.00
1:02 am 01:02 Cloudy 41 5 39 4 93 93 NW 9 15 30.02 1017 10 16 0.00 0.00
1:30 am 01:30 Cloudy 43 6 39 4 87 87 NW 8 13 30.03 1017 10 16 0.00 0.00
1:56 am 01:56 Cloudy 41 5 38 3.3 89 89 NW 10 17 30.05 1018 10 16 0.00 0.00
2:56 am 02:56 Cloudy 41 5 37 2.8 86 86 NW 9 15 30.07 1018 10 16 0.00 0.00
3:56 am 03:56 Clear 37 2.8 36 2.2 96 96 NNW 6 9 30.07 1018 10 16 0.00 0.00
4:15 am 04:15 Mostly Cloudy 39 4 37 3 93 93 NW 5 7 30.07 1018 10 16 0.00 0.00
4:56 am 04:56 Cloudy 39 3.9 37 2.8 93 93 NW 7 11 30.09 1019 10 16 0.00 0.00
5:56 am 05:56 Cloudy 40 4.4 37 2.8 89 89 NNW 8 13 30.11 1020 10 16 0.00 0.00
6:56 am 06:56 Cloudy 40 4.4 36 2.2 86 86 NW 12 19 30.14 1021 10 16 0.00 0.00
7:56 am 07:56 Cloudy 41 5 36 2.2 82 82 NW 9 15 30.18 1022 10 16 0.00 0.00
8:29 am 08:29 Cloudy 39 4 37 3 93 93 Calm 30.18 1022 10 16 0.01 0.25
8:56 am 08:56 Mostly Cloudy 45 7.2 37 2.8 74 74 WNW 7 11 30.19 1022 10 16 0.01 0.25
9:56 am 09:56 Mostly Cloudy 46 7.8 36 2.2 68 68 N 9 15 30.20 1023 10 16 0.00 0.00
10:56 am 10:56 Cloudy 47 8.3 32 0 56 56 WNW 9 15 30.22 1023 10 16 0.00 0.00
11:56 am 11:56 Cloudy with Light Rain 44 6.7 34 1.1 68 68 WNW 13 20 30.23 1024 10 16 0.00 0.00
12:56 pm 12:56 Cloudy 47 8.3 33 0.6 59 59 NW 9 15 30.23 1024 10 16 0.00 0.00
1:56 pm 13:56 Cloudy 48 8.9 33 0.6 56 56 WNW 13 20 30.22 1023 10 16 0.00 0.00
2:56 pm 14:56 Cloudy 48 8.9 33 0.6 56 56 WNW 15 24 30.22 1023 10 16 0.00 0.00
3:56 pm 15:56 Cloudy 50 10 34 1.1 54 54 WNW 16 26 30.22 1024 10 16 0.00 0.00
4:56 pm 16:56 Cloudy 50 10 31 -0.6 48 48 NW 14 22 30.22 1023 10 16 0.00 0.00
5:56 pm 17:56 Cloudy 45 7.2 36 2.2 71 71 W 14 22 30.24 1024 10 16 0.00 0.00
6:56 pm 18:56 Cloudy 45 7.2 35 1.7 68 68 N 9 15 30.25 1025 10 16 0.00 0.00
7:56 pm 19:56 Cloudy 46 7.8 36 2.2 68 68 N 14 22 30.27 1025 10 16 0.00 0.00
8:56 pm 20:56 Cloudy 41 5 37 2.8 86 86 Calm 30.29 1026 10 16 0.00 0.00
9:56 pm 21:56 Mostly Cloudy 39 3.9 35 1.7 86 86 WNW 6 9 30.31 1026 10 16 0.00 0.00
10:56 pm 22:56 Clear 36 2.2 34 1.1 93 93 W 3 6 30.33 1027 10 16 0.00 0.00
11:56 pm 23:56 Clear 36 2.2 34 1.1 93 93 W 6 9 30.35 1028 10 16 0.00 0.00

Powered by AerisWeather